Regional Weather Roundup
Issued by NWS

Home | Current Version | Previous Version | Text Only | Print | Product List | Glossary Off
Versions: 1 2 3 4 5 6 7 8 9 10 11 12 13 14 15 16 17 18 19 20 21 22 23 24 25 26 27 28 29 30 31 32 33 34 35 36 37 38 39 40 41 42 43 44 45 46 47 48 49 50

000
ASUS45 KBOI 301210
RWRID

IDAHO REGIONAL WEATHER ROUNDUP
NATIONAL WEATHER SERVICE BOISE ID
600 AM MDT SUN AUG 30 2015

NOTE: "FAIR" INDICATES FEW OR NO CLOUDS BELOW 12000 FEET
WITH NO SIGNIFICANT WEATHER AND/OR OBSTRUCTIONS TO VISIBILITY

IDZ012-014-301300-
SOUTHWEST IDAHO


CITY           SKY/WX    TMP DP  RH WIND       PRES   REMARKS
BOISE          CLEAR     60  44  55 CALM      29.93R
CALDWELL       CLEAR     54  36  50 CALM      29.93R
MOUNTAIN HOME  CLEAR     60  40  47 NW10      29.92R
$$

IDZ016-017-301300-
SOUTHCENTRAL IDAHO


CITY           SKY/WX    TMP DP  RH WIND       PRES   REMARKS
BURLEY         PTCLDY    58  49  72 S6        29.97S
JEROME         PTCLDY    62  47  57 SE8       29.97R
TWIN FALLS     PTCLDY    67  44  43 S9        29.97R
$$

IDZ019>023-301300-
SOUTHEAST IDAHO


CITY           SKY/WX    TMP DP  RH WIND       PRES   REMARKS
IDAHO FALLS    PTCLDY    57  54  89 SW8       29.98R
POCATELLO      CLEAR     62  48  60 S12       30.01R
REXBURG        PTCLDY    60  53  77 S15       29.97R
$$

IDZ006-010-011-018-031-032-301300-
CENTRAL IDAHO MOUNTAINS


CITY           SKY/WX    TMP DP  RH WIND       PRES   REMARKS
MCCALL         PTCLDY    49  47  93 CALM      29.96R
HAILEY         CLOUDY    59  50  72 CALM      30.02S
STANLEY          N/A     48  44  86 SW5       30.07R
SALMON         CLOUDY    63  46  55 SE14G21   29.91S
CHALLIS        MOCLDY    58  47  66 NW3       29.99R
$$

IDZ002-004-006-007-026-301300-
NORTHERN IDAHO


CITY           SKY/WX    TMP DP  RH WIND       PRES   REMARKS
LEWISTON       NOT AVBL
LOWELL           N/A     59  57  93 CALM      29.90S
COEUR D`ALENE  CLEAR     57  48  72 S14       29.84F
MULLAN PASS    CLOUDY    47  38  71 VRB6      29.97F
$$



USA.gov is the U.S. government's official web portal to all federal, state and local government web resources and services.